Weather History for Omaha Offutt, NE

Change the Weather History Date:

Thursday, December 26, 2013

  Actual Average Record
Temperature  
Mean Temperature 30 °F -  
Max Temperature 46 °F 33 °F 58 °F (2008)
Min Temperature 15 °F 15 °F 1 °F (1996)
Degree Days  
Heating Degree Days 34    
Moisture  
Dew Point 21 °F    
Average Humidity 78    
Maximum Humidity 99    
Minimum Humidity 38    
Precipitation  
Precipitation 0.00 in - - ()
Sea Level Pressure  
Sea Level Pressure 30.21 in    
Wind  
Wind Speed 4 mph (SSW)    
Max Wind Speed 8 mph    
Max Gust Speed -    
Visibility 10 miles    
Events      
Averages and records for this station are not official NWS values.
T = Trace of Precipitation, MM = Missing Value Source: NWS Daily Summary

Daily Weather History Graph

Daily Weather History Graph

Search for Another Location

Airport:

Trip Planner

Search our weather history database for the weather conditions in past years. The results will help you decide how hot, cold, wet, or windy it might be!

Date:

Astronomy

Dec. 26, 2013 Rise Set
Actual Time 7:47 AM CST 5:01 PM CST
Civil Twilight 7:16 AM CST 5:32 PM CST
Nautical Twilight 6:41 AM CST 6:07 PM CST
Astronomical Twilight 6:08 AM CST 6:40 PM CST
Moon 1:14 AM CST (12/26) 12:39 PM CST (12/26)
Length of Visible Light 10h 15m
Length of Day
9h 13m
Last Quarter, 38% of the Moon is Illuminated
Dec 26
Last Quarter
Jan 1
New
Jan 7
First Quarter
Jan 15
Full
Jan 23
Last Quarter

Hourly Weather History & Observations

Time (CST) Temp. Windchill Dew Point Humidity Pressure Visibility Wind Dir Wind Speed Gust Speed Precip Events Conditions
12:58 AM 15.1 °F 9.4 °F 14.7 °F 98% 30.28 in 10.0 mi South 3.5 mph - N/A   Clear
1:58 AM 18.7 °F 13.5 °F 18.5 °F 99% 30.26 in 10.0 mi SE 3.5 mph - N/A   Clear
2:58 AM 18.3 °F 9.1 °F 18.0 °F 98% 30.25 in 10.0 mi SSE 6.9 mph - N/A   Clear
3:58 AM 17.8 °F - 17.4 °F 98% 30.25 in 10.0 mi SE 1.2 mph - N/A   Clear
4:58 AM 16.0 °F 8.8 °F 15.3 °F 97% 30.21 in 10.0 mi SE 4.6 mph - N/A   Clear
5:58 AM 17.2 °F 8.9 °F 16.7 °F 98% 30.20 in 10.0 mi SSE 5.8 mph - N/A   Clear
6:58 AM 18.5 °F 10.4 °F 18.1 °F 98% 30.19 in 10.0 mi SE 5.8 mph - N/A   Clear
7:58 AM 17.8 °F - 16.5 °F 95% 30.18 in 10.0 mi NW 2.3 mph - N/A   Clear
8:58 AM 21.6 °F - 21.0 °F 98% 30.18 in 10.0 mi South 2.3 mph - N/A   Partly Cloudy
9:58 AM 30.2 °F - 27.0 °F 88% 30.20 in 10.0 mi Calm Calm - N/A   Partly Cloudy
10:55 AM 39.2 °F 35.0 °F 26.6 °F 61% 30.14 in 10.0 mi West 5.8 mph - N/A   Clear
10:58 AM 39.2 °F 35.0 °F 24.8 °F 56% 30.19 in 10.0 mi West 5.8 mph - N/A   Clear
11:04 AM 37.4 °F 32.8 °F 24.8 °F 60% 30.13 in 10.0 mi WSW 5.8 mph - N/A   Clear
11:58 AM 40.1 °F 36.1 °F 23.2 °F 51% 30.18 in 10.0 mi WSW 5.8 mph - 0.00 in   Partly Cloudy
12:58 PM 42.6 °F 37.8 °F 23.4 °F 47% 30.16 in 10.0 mi West 8.1 mph - N/A   Clear
1:58 PM 45.5 °F 42.5 °F 22.8 °F 41% 30.15 in 10.0 mi West 5.8 mph - N/A   Clear
2:58 PM 46.9 °F - 22.6 °F 38% 30.14 in 10.0 mi WSW 6.9 mph - N/A   Clear
3:58 PM 46.8 °F - 22.5 °F 38% 30.18 in 10.0 mi WSW 5.8 mph - N/A   Clear
4:58 PM 44.2 °F 42.7 °F 22.3 °F 42% 30.20 in 10.0 mi SW 3.5 mph - N/A   Clear
5:58 PM 28.4 °F - 22.1 °F 77% 30.22 in 10.0 mi SSW 2.3 mph - N/A   Clear
6:58 PM 27.3 °F - 22.8 °F 83% 30.24 in 10.0 mi Calm Calm - N/A   Clear
7:58 PM 22.8 °F - 21.6 °F 95% 30.26 in 10.0 mi Calm Calm - N/A   Clear
8:58 PM 24.8 °F - 22.6 °F 91% 30.26 in 10.0 mi WSW 1.2 mph - N/A   Clear
9:58 PM 20.8 °F 14.4 °F 20.3 °F 98% 30.27 in 10.0 mi South 4.6 mph - N/A   Clear
10:58 PM 21.6 °F 16.8 °F 21.0 °F 98% 30.28 in 10.0 mi WSW 3.5 mph - N/A   Clear
11:58 PM 22.1 °F 17.4 °F 20.8 °F 95% 30.30 in 10.0 mi SSW 3.5 mph - N/A   Clear